RH
36 32 34 29 32 26 30 31 32 28 24 34 41 40 55 72 76 74 68 68 71 69 61 60 63 64 63 68 72 73 79 83 80 85 85 80 85 87 88 84 81 76 66 63
35 40 32 32 32 32 31 31 31 29 23 28 27 31 43 65 68 63 64 68 67 66 66 62 64 67 67 64 71 78 78 80 76 74 73 69 74 79 76 79 72 71 67 61
39 29 32 33 32 33 31 31 34 33 30 26 30 28 39 50 59 58 58 59 60 63 65 62 65 67 67 67 71 76 77 78 76 73 73 75 72 72 79 72 64 66 63 58
36 33 34 31 31 29 32 28 32 34 31 27 28 27 29 42 50 53 53 56 56 55 58 59 61 66 70 68 72 74 78 77 76 78 73 75 72 71 72 66 58 60 62 60
36 35 38 37 33 31 31 33 34 33 34 35 34 27 25 38 42 46 48 48 51 52 53 57 58 58 62 71 79 78 76 76 75 78 75 84 78 78 80 67 68 66 64 60
34 32 33 32 29 31 32 32 33 40 40 44 38 33 30 32 30 33 38 43 43 45 49 50 54 57 59 72 79 82 79 78 79 84 82 81 79 81 79 71 67 63 58 55
34 34 30 31 30 32 31 34 41 39 53 46 43 41 33 27 28 29 30 34 38 40 44 47 51 58 62 76 80 81 78 88 90 87 85 86 85 78 75 72 73 74 64 58
37 39 33 33 30 32 36 34 48 45 51 36 43 40 23 27 26 34 38 36 32 40 44 44 45 50 62 72 76 79 78 83 93 90 87 84 80 82 78 77 78 71 59 58
49 38 34 38 32 28 35 37 35 59 70 58 42 34 24 27 30 34 38 40 36 39 44 44 44 51 59 71 78 80 77 76 90 93 88 86 84 82 81 82 78 72 63 56
41 41 37 35 36 36 33 34 44 50 56 56 40 39 27 25 26 30 33 36 38 44 44 50 50 55 60 67 72 81 76 73 76 84 87 90 85 80 81 83 76 68 64 58
41 35 36 43 39 34 37 39 43 39 49 49 50 36 33 26 26 31 32 33 40 42 48 53 57 65 66 69 73 76 73 71 76 80 84 86 85 85 85 87 77 72 66 55
40 48 50 34 35 32 34 39 42 56 48 60 61 42 27 30 27 28 28 31 39 41 44 55 64 70 77 76 76 79 81 80 78 79 84 84 83 86 86 85 80 71 63 53
46 47 48 37 36 35 38 39 43 50 56 59 74 43 26 29 28 28 28 26 32 46 52 61 68 71 75 79 82 81 80 79 75 73 73 74 77 80 82 82 73 64 56 53
45 51 45 40 37 38 45 43 44 45 60 55 53 38 30 26 30 27 29 31 29 31 54 63 70 71 72 75 75 76 78 76 73 70 68 72 74 72 71 64 59 62 62 62
45 48 50 39 33 35 36 40 46 41 45 52 40 41 32 30 30 30 33 33 43 55 61 65 67 69 69 71 72 74 74 71 67 65 62 66 64 59 58 60 72 73 70 64
50 52 48 47 45 41 46 40 44 43 44 42 40 41 33 31 31 37 38 51 57 60 64 64 60 64 70 72 70 73 71 69 65 64 62 62 65 67 72 74 77 75 71 74
58 68 60 52 49 46 65 51 41 41 42 43 48 36 36 35 39 44 51 52 56 59 63 67 71 74 74 73 75 73 71 69 66 66 64 64 65 69 74 75 79 87 86 85
66 66 67 72 67 72 39 37 36 41 38 36 36 34 34 37 52 51 49 50 56 59 64 68 66 66 66 66 67 67 63 64 64 62 61 61 65 75 79 83 83 89 90 91
58 71 74 79 63 50 38 38 40 42 29 32 33 36 43 54 51 55 61 59 62 67 67 67 64 63 62 62 60 60 61 62 64 67 69 70 74 75 78 90 91 83 85 83
64 68 71 73 70 68 51 36 37 32 44 37 39 51 56 53 58 49 63 65 68 66 65 65 64 61 62 64 62 67 70 71 74 73 72 70 70 72 76 80 84 86 86 83
76 79 77 77 81 65 46 36 38 49 42 46 45 51 56 50 49 62 67 69 66 67 68 66 64 68 69 68 69 74 77 82 77 78 79 82 84 89 87 80 70 68 67 69
71 77 86 80 89 70 44 39 48 50 47 49 52 56 60 69 73 70 69 70 70 68 68 66 71 75 74 70 73 83 87 82 77 78 74 66 63 61 60 65 64 64 65 69
74 67 68 62 67 56 47 45 43 45 45 54 53 54 64 73 70 70 71 70 69 66 67 67 69 72 68 64 62 65 65 58 59 61 63 64 65 64 63 62 64 62 64 70
66 59 68 64 53 51 53 50 53 48 50 50 49 56 61 68 71 71 67 69 68 65 65 62 64 67 71 67 68 66 66 64 66 70 71 68 66 64 61 57 58 60 67 72
69 62 64 62 57 68 60 61 56 60 65 65 61 60 64 69 69 64 67 68 66 66 65 64 67 72 75 74 76 76 72 65 65 67 66 66 66 63 56 54 61 63 59 71
65 63 70 68 48 51 45 53 65 68 66 64 66 71 67 64 66 64 68 69 69 72 68 68 73 74 74 74 72 68 63 57 57 58 58 66 63 63 55 53 52 68 71 73
Wind_Speed
1 2 5 8 5 4 4 3 1 2 3 3 9 6 13 14 10 10 11 10 11 12 8 11 13 13 14 14 14 14 13 11 8 6 6 5 6 6 5 5 6 8 8 9
1 3 3 3 5 5 3 1 2 1 2 6 5 6 2 13 11 13 13 12 13 11 9 11 14 15 16 17 16 15 15 13 11 8 7 4 6 5 4 5 7 8 10 11
4 3 2 3 3 4 2 1 2 3 1 2 2 2 2 6 10 9 12 10 12 13 13 12 14 16 15 17 16 14 14 14 12 12 8 5 5 4 4 5 5 7 10 11
4 1 2 2 4 3 2 1 3 3 2 2 1 2 4 5 10 11 14 13 16 15 14 14 17 18 17 16 14 15 15 14 13 13 11 12 9 9 7 8 7 8 10 11
4 4 3 5 5 5 4 3 1 1 2 2 1 1 1 1 9 17 18 17 17 17 17 18 18 17 15 16 15 14 15 14 12 14 14 11 11 6 5 6 11 9 8 9
3 2 5 6 3 4 4 2 4 3 2 1 1 2 3 4 7 8 16 17 18 17 18 19 17 15 15 14 13 13 14 12 11 12 14 16 14 10 9 9 9 8 7 8
0 3 2 3 3 1 2 3 1 2 1 2 3 1 6 5 6 9 11 17 20 18 17 17 18 17 16 17 16 14 15 13 13 15 13 12 12 14 14 13 9 10 8 9
6 3 7 4 5 6 5 4 4 3 3 1 1 4 3 3 5 8 8 11 9 14 15 17 18 17 17 16 16 16 17 16 11 11 15 15 14 8 9 11 10 9 10 9
5 4 1 2 2 3 3 3 2 7 2 0 1 4 8 1 1 3 3 5 7 8 12 16 14 15 14 15 18 18 16 16 13 14 12 13 13 12 11 12 10 9 10 10
7 2 1 2 2 3 2 7 3 2 3 3 2 3 4 3 2 3 7 5 6 6 7 9 10 11 11 13 12 13 16 18 17 12 12 10 12 13 12 10 13 14 12 12
5 2 2 2 5 7 4 3 4 3 1 3 2 4 7 6 2 4 5 6 7 7 6 5 6 7 9 10 12 13 13 14 12 12 11 11 11 11 10 9 12 12 12 15
5 5 4 7 1 2 3 6 6 4 5 1 0 6 2 7 5 5 7 4 4 6 7 5 6 5 7 8 9 9 9 9 10 9 9 10 10 9 10 10 11 12 14 14
8 2 2 2 2 1 4 5 4 5 3 7 4 4 2 3 6 5 9 4 4 4 5 5 5 4 5 5 6 8 8 9 5 5 6 6 6 8 9 10 11 12 14 15
10 5 7 10 7 4 4 6 5 5 3 5 7 6 7 7 6 9 6 6 7 5 4 2 2 2 2 4 5 4 4 5 5 5 5 6 7 8 7 7 9 9 10 9
7 7 6 4 3 5 5 6 11 9 6 8 8 10 8 7 6 5 6 5 4 5 4 4 4 4 4 3 5 4 4 5 6 6 6 6 7 7 8 8 6 6 6 6
2 5 5 4 3 5 6 3 9 9 2 9 5 10 9 3 3 1 2 5 8 10 10 10 9 6 4 2 2 5 7 6 6 6 7 8 9 9 8 9 8 9 9 10
3 8 5 5 1 1 4 8 10 4 5 6 9 11 4 6 6 5 6 8 8 8 9 10 10 9 8 8 6 7 7 8 9 9 9 10 10 11 10 10 11 11 11 7
7 4 2 4 2 7 2 1 3 11 9 10 8 7 6 4 6 6 3 9 9 7 9 9 8 9 9 10 11 11 11 12 12 11 11 11 12 14 13 11 11 7 4 5
3 5 4 5 5 4 2 5 8 8 15 11 13 6 7 12 8 4 3 6 8 8 8 9 8 10 10 11 11 14 13 13 13 12 12 12 12 12 10 7 6 4 3 4
5 3 4 4 6 10 4 4 6 4 14 8 11 11 17 12 7 6 8 7 9 9 9 10 10 11 12 12 13 15 14 14 14 13 12 10 8 7 6 4 3 1 1 3
4 3 6 3 3 6 6 4 6 6 12 6 12 14 17 9 1 11 12 10 9 10 11 11 12 13 13 12 14 16 14 13 10 9 8 8 7 6 4 3 2 4 5 5
8 9 5 3 2 7 8 6 11 7 3 5 10 12 11 10 13 14 13 13 12 13 13 13 14 13 12 12 14 14 12 9 9 8 8 7 7 5 4 5 4 5 5 6
5 7 8 10 8 2 11 4 8 4 4 6 11 10 14 16 11 15 14 13 13 14 13 12 14 15 13 12 12 13 9 9 9 9 9 7 7 5 5 5 5 5 5 6
4 3 4 4 6 8 7 3 3 5 5 5 7 14 16 15 17 16 14 14 13 13 14 14 15 15 13 11 12 11 9 8 9 9 8 6 6 5 6 4 5 5 6 7
4 7 6 4 4 2 9 11 6 6 6 9 9 9 13 20 17 17 16 15 14 14 13 13 14 13 13 11 12 10 9 8 8 7 7 6 5 7 6 6 6 6 6 7
6 8 7 8 10 8 8 14 11 11 12 13 14 13 13 16 19 19 16 14 15 14 14 14 14 14 12 11 11 10 9 8 7 7 6 6 5 5 5 6 6 6 10 13
Wind_Direction
36 181 221 224 187 176 127 124 188 248 261 255 222 207 193 205 202 210 218 216 225 232 220 190 191 191 191 194 197 197 197 190 172 163 167 179 184 178 176 186 179 175 170 156
92 230 245 272 193 166 150 78 327 314 341 205 304 253 188 192 222 207 213 226 227 228 213 203 196 196 198 197 199 197 198 187 186 184 179 181 178 181 175 175 173 180 165 162
179 184 99 203 204 203 189 214 198 241 326 84 192 313 202 204 244 240 232 223 238 229 220 210 208 206 204 206 203 203 200 194 192 188 166 122 124 116 158 177 164 164 163 157
227 244 167 232 223 167 259 174 162 247 185 189 314 223 284 226 226 236 237 227 233 226 223 215 206 210 208 209 205 205 199 195 192 187 187 184 194 188 194 182 163 157 158 149
224 159 186 218 220 178 228 160 166 108 123 160 26 163 224 97 237 238 235 231 227 225 220 223 221 215 205 201 200 201 200 200 188 188 197 200 197 194 157 157 149 149 151 153
197 184 157 218 218 190 134 107 54 77 107 200 169 213 275 208 218 253 237 236 234 223 218 220 222 220 212 200 196 192 195 195 190 196 203 200 201 170 163 165 159 159 162 161
172 212 205 184 152 111 115 117 276 175 147 196 143 157 246 252 234 241 251 233 230 231 222 217 211 208 206 197 195 191 186 188 179 194 200 206 191 178 178 173 168 163 170 177
182 251 177 187 198 195 191 193 165 198 192 170 164 224 211 217 274 290 283 270 247 229 226 224 219 213 203 198 195 193 189 189 184 204 203 200 191 180 187 183 173 180 183 175
149 257 182 175 137 171 169 202 102 105 18 238 246 270 273 329 1 301 323 313 282 243 226 227 223 214 205 196 197 197 188 196 192 197 197 201 196 187 190 179 175 182 175 173
198 160 265 138 144 62 205 141 120 37 167 222 255 273 250 312 291 322 327 327 307 300 240 229 225 215 206 201 196 195 191 199 202 201 204 194 200 195 187 169 182 188 181 176
135 145 242 124 202 185 151 176 70 116 150 192 199 239 213 236 224 256 274 270 273 262 255 236 227 207 203 192 190 200 204 207 200 194 195 194 197 195 180 180 190 188 179 182
189 145 197 205 127 197 180 195 167 174 193 125 227 258 258 252 264 280 281 245 242 255 268 249 234 194 186 196 195 199 204 204 206 202 203 207 196 181 173 182 185 183 187 186
174 175 195 305 45 25 219 184 133 104 87 184 174 250 217 273 290 251 269 281 258 242 228 229 222 233 192 185 176 186 195 207 205 199 207 193 183 187 197 203 195 187 189 183
125 147 175 220 216 153 191 185 178 149 155 175 220 249 269 287 292 291 289 299 293 277 242 165 133 242 235 191 206 197 160 143 141 161 182 181 188 198 198 190 170 176 166 181
153 197 179 234 213 175 201 186 179 195 201 192 241 210 247 247 262 281 306 317 29 57 73 104 142 158 169 195 159 142 136 150 153 155 162 157 151 144 139 137 118 112 101 123
175 196 152 184 104 191 228 177 198 219 218 258 244 249 236 221 230 320 15 95 89 82 78 72 71 79 95 155 160 124 136 144 159 145 132 125 115 107 103 95 95 93 94 111
169 138 129 220 110 173 293 212 205 201 210 201 229 243 176 198 183 129 114 101 97 88 81 72 66 61 54 54 77 85 98 109 102 102 102 104 104 99 97 100 99 96 103 100
149 142 110 152 140 230 225 117 200 225 246 221 256 237 222 167 110 98 93 128 113 98 91 80 78 75 64 73 82 91 90 90 92 93 98 105 107 103 97 90 90 81 103 129
168 133 120 154 192 295 221 190 183 177 251 217 225 203 154 139 126 87 65 91 109 104 91 86 83 83 83 82 89 91 88 92 94 96 98 100 103 102 103 103 123 153 185 212
93 64 137 159 170 211 182 209 143 118 274 198 193 175 160 164 170 163 155 126 104 94 92 97 95 95 90 88 95 94 94 96 95 97 100 104 109 112 105 109 114 136 232 263
126 60 166 163 209 288 241 144 149 155 260 195 189 171 166 181 80 128 133 117 110 113 110 107 97 91 91 96 97 92 92 90 93 93 88 79 71 74 69 56 13 326 312 303
162 155 173 119 110 254 152 103 174 207 178 184 176 171 155 123 125 126 128 129 128 121 113 105 100 94 91 93 94 94 90 95 90 82 78 68 56 45 30 13 353 338 327 312
233 196 179 189 202 199 200 194 191 161 166 190 172 157 142 140 146 142 139 136 131 123 115 110 104 96 85 87 94 94 86 86 84 79 70 58 53 41 29 9 356 335 330 314
246 180 192 122 207 214 215 227 222 191 192 168 166 149 153 148 148 140 138 137 132 129 121 117 108 100 91 82 79 82 82 85 84 79 68 55 47 27 26 16 9 352 345 338
195 145 165 267 264 347 253 225 195 169 142 126 114 147 149 141 145 144 141 138 134 127 123 116 110 105 97 88 78 69 71 83 83 76 60 43 30 19 9 12 3 356 351 337
189 178 179 212 202 185 221 194 168 163 169 156 138 128 140 144 143 143 138 138 135 128 125 116 111 107 100 89 78 66 60 62 68 65 49 35 25 18 9 1 349 29 359 352